Flag for Germany Weather past 2 weeks in Sindelfingen, Baden-Württemberg, Germany

Now
43 °F

Passing clouds.


Feels Like: 41 °F
Forecast: 40 / 61 °F
Wind: 3 mph from Southwest

Location: Stuttgart-Echterdingen

Current Time: Sep 23, 2014 at 3:23:45 AM

Latest Report: Sep 23, 2014 at 2:50 AM


Visibility: N/A

Pressure: 30.15 "Hg

Humidity: 93%

Dew point: 41 °F

Location of SindelfingenLocation

Historic Weather in Sindelfingen — Graph

°F

Sindelfingen temperature yesterday

Maximum temperature yesterday: 57 °F (at 3:20 PM)
Minimum temperature yesterday: 43 °F (at 11:20 PM)
Average temperature yesterday: 51 °F

Past Weeks' High & Low Weather Summary

 TemperatureHumidityPressure
High77 °F (Sep 8, 2:20 PM)100% (Sep 8, 2:20 AM)30.18 "Hg (Sep 8, 2:20 AM)
Low43 °F (Sep 22, 11:20 PM)52% (Sep 10, 6:20 PM)29.89 "Hg (Sep 17, 2:50 PM)
Average60 °F85%30.02 "Hg
* Reported Sep 8 1:20 AM — Sep 23 1:50 AM, Sindelfingen, Weather by CustomWeather, © 2014

Note: Actual official high and low records may vary slightly from our data, if they occured in-between our weather recording intervals... More about our weather records

Advertising

Sindelfingen weather history for previous 24 hours

 ConditionsComfort  
Time TempWeatherWind HumidityBarometerVisibility
1:50 AM
Sep 23
43 °FPassing clouds.2 mph100%30.15 "HgN/A
1:20 AM43 °FPassing clouds.2 mph93%30.15 "HgN/A
12:50 AM45 °FPassing clouds.1 mph93%30.15 "HgN/A
12:20 AM45 °FPassing clouds.6 mph93%30.18 "HgN/A
11:50 PM
Sep 22
45 °FPassing clouds.5 mph93%30.18 "HgN/A
11:20 PM43 °FClear.6 mph93%30.18 "Hg10 mi
10:50 PM45 °FClear.3 mph93%30.18 "Hg10 mi
10:20 PM45 °FClear.3 mph93%30.18 "Hg10 mi
9:50 PM45 °FClear.3 mph93%30.18 "Hg10 mi
9:20 PM46 °FPassing clouds.5 mph87%30.15 "HgN/A
8:50 PM46 °FPassing clouds.3 mph93%30.18 "HgN/A
8:20 PM46 °FPassing clouds.7 mph93%30.18 "HgN/A
7:50 PM48 °FScattered clouds.6 mph87%30.15 "HgN/A
7:20 PM48 °FPassing clouds.7 mph87%30.15 "HgN/A
6:50 PM50 °FPassing clouds.1 mph82%30.12 "HgN/A
6:20 PM50 °FScattered clouds.3 mph88%30.12 "HgN/A
5:50 PM48 °FThundershowers. Broken clouds.14 mph87%30.12 "HgN/A
5:20 PM55 °FThunderstorms. Broken clouds.15 mph63%30.07 "HgN/A
4:50 PM55 °FBroken clouds.16 mph63%30.07 "HgN/A
4:20 PM55 °FBroken clouds.7 mph67%30.07 "HgN/A
3:50 PM55 °FBroken clouds.13 mph67%30.07 "HgN/A
3:20 PM57 °FBroken clouds.14 mph63%30.07 "HgN/A
2:50 PM55 °FPartly sunny.13 mph67%30.07 "HgN/A
2:20 PM55 °FScattered clouds.13 mph63%30.09 "HgN/A
1:50 PM55 °FScattered clouds.13 mph63%30.09 "HgN/A
1:20 PM55 °FBroken clouds.10 mph63%30.09 "HgN/A
12:50 PM55 °FScattered clouds.10 mph67%30.09 "HgN/A
12:20 PM55 °FBroken clouds.10 mph72%30.09 "HgN/A
11:50 AM55 °FPartly sunny.7 mph77%30.12 "HgN/A
11:20 AM54 °FPartly sunny.12 mph77%30.12 "HgN/A
10:50 AM54 °FPartly sunny.8 mph77%30.12 "HgN/A
10:20 AM54 °FPartly sunny.9 mph77%30.12 "HgN/A
9:50 AM54 °FBroken clouds.10 mph82%30.12 "HgN/A
9:20 AM52 °FScattered clouds.6 mph88%30.12 "HgN/A
8:50 AM52 °FPartly sunny.7 mph88%30.12 "HgN/A
8:20 AM52 °FPartly sunny.7 mph88%30.12 "HgN/A
7:50 AM50 °FPassing clouds.6 mph94%30.12 "HgN/A
7:20 AM52 °FPassing clouds.7 mph88%30.12 "HgN/A
6:50 AM52 °FPassing clouds.9 mph88%30.12 "Hg6 mi
6:20 AM50 °FPassing clouds.9 mph88%30.12 "HgN/A
5:50 AM50 °FPassing clouds.8 mph88%30.12 "HgN/A
5:20 AM50 °FPartly cloudy.8 mph94%30.12 "HgN/A
4:50 AM52 °FPartly cloudy.7 mph88%30.12 "HgN/A
4:20 AM52 °FPassing clouds.9 mph88%30.09 "HgN/A
3:50 AM50 °FPassing clouds.9 mph94%30.09 "HgN/A
3:20 AM52 °FPassing clouds.7 mph94%30.09 "HgN/A
Weather by CustomWeather, © 2014

See weather overviewHow to use our weather pages